Spokane, WA
on Sunday, February 10, 2013

Sunday
Previous Day Next Day
Daily Summary
 ActualAverageRecord
Temperature
Mean Temperature °F / °C 32°F / 0°C  
Max Temperature 33°F / 1°C 38°F / 3°C 55°F / 12°C (1963)
Min Temperature 21°F / -6°C 26°F / -3°C -6°F / -21°C (1929)
Degree Days
Heating Degree Days 38 33  
Month to date heating degree days 322 332  
Since 1 July heating degree days 3990 4265  
Cooling Degree Days 0 0  
Month to date cooling degree days 0 0  
Year to date cooling degree days 0 0  
Moisture
Dew Point 25°F / -4°C   
Average Humidity 88    
Maximum Humidity 100    
Minimum Humidity 75    
Precipitation
Precipitation 0.00 in / 0.00 cm 0.05 in / 1.27 cm 0.59 in / 1.50 cm (1961)
Month to date precipitation 0.04 0.47  
Year to date precipitation 1.67 2.26  
Snow
Snow 0.00 in / 0.00 cm 0.20 in / 0.51 cm 3.10 in / 7.87 cm (1904)
Month to date snowfall 0.3 2.7  
Since 1 July snowfall 38.5 36.2  
Snow Depth 0.00 in / 0.00 cm   
Wind
Wind Speed 1 mph / 2 km/h   
Max Wind Speed 7 mph / 11 km/h   
Max Gust Speed 9 mph / 14 km/h   
Visibility 5 miles / 8 kilometers   
Events Fog   

Key: T is trace of precipitation, MM is missing value
Source: NWS Daily Summary
Time(PST)TemperatureDew PointHumidity Pressure Visibility Wind DirectionWind SpeedGust SpeedPrecipitationEvents Conditions
12:29 AM 21.2°F / -6.0°C 19.4°F / -7.0°C 93% 30.16 in / 1021.2 hPa 1.0 miles / 1.6 kilometers Calm Calm - N/A   Scattered Clouds
12:53 AM 21.9°F / -5.6°C 19.9°F / -6.7°C 92% 30.24 in / 1024.0 hPa 0.2 miles / 0.4 kilometers Calm Calm - N/A Fog Light Freezing Fog
1:53 AM 21.9°F / -5.6°C 21.0°F / -6.1°C 96% 30.25 in / 1024.3 hPa 1.0 miles / 1.6 kilometers Calm Calm - N/A   Mostly Cloudy
2:24 AM 24.8°F / -4.0°C 21.2°F / -6.0°C 86% 30.17 in / 1021.6 hPa 2.5 miles / 4.0 kilometers Calm Calm - N/A   Mostly Cloudy
2:37 AM 24.8°F / -4.0°C 21.2°F / -6.0°C 86% 30.17 in / 1021.6 hPa 0.5 miles / 0.8 kilometers Calm Calm - N/A   Mostly Cloudy
2:53 AM 26.1°F / -3.3°C 23.0°F / -5.0°C 88% 30.25 in / 1024.1 hPa 0.5 miles / 0.8 kilometers NE 3.5 mph / 5.6 km/h - N/A   Overcast
3:53 AM 26.1°F / -3.3°C 24.1°F / -4.4°C 92% 30.25 in / 1024.1 hPa 0.5 miles / 0.8 kilometers ENE 4.6 mph / 7.4 km/h - N/A   Overcast
4:26 AM 26.6°F / -3.0°C 24.8°F / -4.0°C 93% 30.18 in / 1021.9 hPa 0.5 miles / 0.8 kilometers NE 4.6 mph / 7.4 km/h - N/A   Overcast
4:53 AM 25.0°F / -3.9°C 24.1°F / -4.4°C 96% 30.26 in / 1024.6 hPa 0.2 miles / 0.4 kilometers Calm Calm - N/A Fog Light Freezing Fog
5:24 AM 24.8°F / -4.0°C 23.0°F / -5.0°C 93% 30.18 in / 1021.9 hPa 0.1 miles / 0.1 kilometers Calm Calm - N/A Fog Light Freezing Fog
5:53 AM 25.0°F / -3.9°C 23.0°F / -5.0°C 92% 30.26 in / 1024.7 hPa 0.1 miles / 0.1 kilometers NNE 3.5 mph / 5.6 km/h - N/A Fog Light Freezing Fog
6:53 AM 26.1°F / -3.3°C 23.0°F / -5.0°C 88% 30.28 in / 1025.3 hPa 0.1 miles / 0.2 kilometers Calm Calm - N/A Fog Light Freezing Fog
7:53 AM 27.0°F / -2.8°C 23.0°F / -5.0°C 85% 30.30 in / 1025.8 hPa 0.1 miles / 0.2 kilometers Calm Calm - N/A Fog Light Freezing Fog
8:53 AM 28.0°F / -2.2°C 24.1°F / -4.4°C 85% 30.30 in / 1026.0 hPa 0.1 miles / 0.2 kilometers Calm Calm - N/A Fog Light Freezing Fog
9:53 AM 30.0°F / -1.1°C 26.1°F / -3.3°C 85% 30.31 in / 1026.4 hPa 0.2 miles / 0.4 kilometers Calm Calm - N/A Fog Light Freezing Fog
10:18 AM 30.2°F / -1.0°C 26.6°F / -3.0°C 86% 30.24 in / 1023.9 hPa 0.5 miles / 0.8 kilometers NE 4.6 mph / 7.4 km/h - N/A   Overcast
10:53 AM 30.9°F / -0.6°C 28.0°F / -2.2°C 89% 30.31 in / 1026.4 hPa 1.5 miles / 2.4 kilometers NE 3.5 mph / 5.6 km/h - N/A   Mostly Cloudy
11:22 AM 30.2°F / -1.0°C 28.4°F / -2.0°C 93% 30.23 in / 1023.6 hPa 3.0 miles / 4.8 kilometers NE 3.5 mph / 5.6 km/h - N/A   Overcast
11:53 AM 30.9°F / -0.6°C 28.0°F / -2.2°C 89% 30.30 in / 1025.9 hPa 3.0 miles / 4.8 kilometers NE 3.5 mph / 5.6 km/h - N/A   Overcast
12:39 PM 30.2°F / -1.0°C 26.6°F / -3.0°C 86% 30.22 in / 1023.2 hPa 10.0 miles / 16.1 kilometers SSE 3.5 mph / 5.6 km/h - N/A   Overcast
12:53 PM 30.0°F / -1.1°C 27.0°F / -2.8°C 88% 30.30 in / 1025.8 hPa 10.0 miles / 16.1 kilometers South 3.5 mph / 5.6 km/h - N/A   Overcast
1:53 PM 30.9°F / -0.6°C 27.0°F / -2.8°C 85% 30.29 in / 1025.5 hPa 10.0 miles / 16.1 kilometers Calm Calm - N/A   Overcast
2:53 PM 32.0°F / 0.0°C 27.0°F / -2.8°C 82% 30.27 in / 1025.1 hPa 10.0 miles / 16.1 kilometers Calm Calm - N/A   Overcast
3:53 PM 33.1°F / 0.6°C 27.0°F / -2.8°C 78% 30.26 in / 1024.7 hPa 10.0 miles / 16.1 kilometers SE 3.5 mph / 5.6 km/h - N/A   Overcast
4:53 PM 32.0°F / 0.0°C 27.0°F / -2.8°C 82% 30.27 in / 1024.9 hPa 10.0 miles / 16.1 kilometers ESE 5.8 mph / 9.3 km/h - N/A   Mostly Cloudy
5:26 PM 32.0°F / 0.0°C 26.6°F / -3.0°C 80% 30.19 in / 1022.2 hPa 10.0 miles / 16.1 kilometers SE 3.5 mph / 5.6 km/h - N/A   Mostly Cloudy
5:35 PM 32.0°F / 0.0°C 26.6°F / -3.0°C 80% 30.19 in / 1022.2 hPa 10.0 miles / 16.1 kilometers SSE 5.8 mph / 9.3 km/h - N/A   Mostly Cloudy
5:53 PM 32.0°F / 0.0°C 26.1°F / -3.3°C 79% 30.27 in / 1024.8 hPa 10.0 miles / 16.1 kilometers SSE 3.5 mph / 5.6 km/h - N/A   Mostly Cloudy
6:37 PM 30.2°F / -1.0°C 26.6°F / -3.0°C 86% 30.20 in / 1022.6 hPa 10.0 miles / 16.1 kilometers Calm Calm - N/A   Mostly Cloudy
6:53 PM 30.0°F / -1.1°C 26.1°F / -3.3°C 85% 30.28 in / 1025.3 hPa 10.0 miles / 16.1 kilometers Calm Calm - N/A   Overcast
7:34 PM 28.4°F / -2.0°C 24.8°F / -4.0°C 86% 30.20 in / 1022.6 hPa 10.0 miles / 16.1 kilometers WNW 3.5 mph / 5.6 km/h - N/A   Scattered Clouds
7:53 PM 28.9°F / -1.7°C 25.0°F / -3.9°C 85% 30.27 in / 1025.1 hPa 10.0 miles / 16.1 kilometers Calm Calm - N/A   Partly Cloudy
8:53 PM 28.0°F / -2.2°C 24.1°F / -4.4°C 85% 30.27 in / 1024.8 hPa 8.0 miles / 12.9 kilometers Calm Calm - N/A   Partly Cloudy
9:37 PM 26.6°F / -3.0°C 23.0°F / -5.0°C 86% 30.18 in / 1021.9 hPa 8.0 miles / 12.9 kilometers Calm Calm - N/A   Mostly Cloudy
9:53 PM 27.0°F / -2.8°C 24.1°F / -4.4°C 89% 30.26 in / 1024.5 hPa 8.0 miles / 12.9 kilometers Calm Calm - N/A   Mostly Cloudy
10:07 PM 26.6°F / -3.0°C 24.8°F / -4.0°C 93% 30.18 in / 1021.9 hPa 8.0 miles / 12.9 kilometers Calm Calm - N/A   Partly Cloudy
10:53 PM 27.0°F / -2.8°C 23.0°F / -5.0°C 85% 30.26 in / 1024.5 hPa 7.0 miles / 11.3 kilometers Calm Calm - N/A   Partly Cloudy
11:53 PM 27.0°F / -2.8°C 24.1°F / -4.4°C 89% 30.24 in / 1024.0 hPa 10.0 miles / 16.1 kilometers Calm Calm - N/A   Partly Cloudy
Moon Phase
Feb. 10 Feb. 17 Feb. 25 Mar. 04 Mar. 11
Sunrise:07:03 AM (PST) Moon Rise:06:50 AM (PST)2/10
Sunset:05:06 PM (PST) Moon Set:06:10 PM (PST)2/10

Copyright © 2014 The Weather Underground, Inc.